This is the latest recevied weather packets stored in our database for station/object K3RUP-1. If no packets are shown the sender has not sent any weather packets the latest 10 day(s).
| Time | Temp. | Humidity | Pressure | Rain* | Wind** | Luminosity | Snow |
|---|---|---|---|---|---|---|---|
| 1788024876 | 25.56° C | 56% | 1023.9 hPa | 0 mm | - | 399 W/m² | - |
| 1788024572 | 25° C | 57% | 1023.9 hPa | 0 mm | - | 666 W/m² | - |
| 1788024271 | 25° C | 55% | 1023.7 hPa | 0 mm | - | 621 W/m² | - |
| 1788023967 | 25° C | 56% | 1024.1 hPa | 0 mm | - | 625 W/m² | - |
| 1788023662 | 24.44° C | 58% | 1024.2 hPa | 0 mm | - | 423 W/m² | - |
| 1788023358 | 25° C | 56% | 1024.3 hPa | 0 mm | - | 590 W/m² | - |
| 1788023057 | 25° C | 57% | 1024.1 hPa | 0 mm | - | 609 W/m² | - |
| 1788022756 | 25° C | 56% | 1024.1 hPa | 0 mm | - | 495 W/m² | - |
| 1788022454 | 25° C | 56% | 1024.2 hPa | 0 mm | - | 609 W/m² | - |
| 1788022149 | 25° C | 57% | 1024.1 hPa | 0 mm | - | 634 W/m² | - |
| 1788021843 | 24.44° C | 57% | 1024 hPa | 0 mm | - | 545 W/m² | - |
| 1788021542 | 24.44° C | 56% | 1024.2 hPa | 0 mm | - | 554 W/m² | - |
| 1788021241 | 25° C | 55% | 1024.3 hPa | 0 mm | - | 586 W/m² | - |
| 1788020936 | 23.89° C | 58% | 1024.1 hPa | 0 mm | - | 592 W/m² | - |
| 1788020635 | 23.89° C | 56% | 1024.2 hPa | 0 mm | - | 532 W/m² | - |
| 1788020332 | 24.44° C | 57% | 1024.2 hPa | 0 mm | - | 545 W/m² | - |
| 1788020027 | 23.89° C | 56% | 1024.6 hPa | 0 mm | - | 580 W/m² | - |
| 1788019722 | 23.89° C | 56% | 1024.5 hPa | 0 mm | - | 560 W/m² | - |
| 1788019416 | 24.44° C | 55% | 1024.2 hPa | 0 mm | - | 603 W/m² | - |
| 1788019114 | 24.44° C | 58% | 1024.3 hPa | 0 mm | - | 599 W/m² | - |
| 1788018815 | 24.44° C | 57% | 1024.1 hPa | 0 mm | - | 581 W/m² | - |
| 1788018503 | 24.44° C | 58% | 1024.3 hPa | 0 mm | - | 613 W/m² | - |
| 1788018203 | 23.89° C | 61% | 1024.2 hPa | 0 mm | - | 615 W/m² | - |
| 1788017899 | 23.89° C | 58% | 1024.2 hPa | 0 mm | - | 617 W/m² | - |
| 1788017595 | 23.89° C | 59% | 1024.1 hPa | 0 mm | - | 594 W/m² | - |
* Rain latest hour (hover to see other rain measurements)
** Current wind speed in m/s (hover to see current wind gust speed)